Weather History for PHBK - February, 2014

Change the Weather History Date:

Sunday, February 2, 2014

  Actual Average Record
Temperature  
Mean Temperature 70 °F -  
Max Temperature 77 °F 79 °F 84 °F (1964)
Min Temperature 64 °F 60 °F 50 °F (1975)
Cooling Degree Days 6    
Growing Degree Days 20 (Base 50)    
Moisture  
Dew Point 59 °F    
Average Humidity 63    
Maximum Humidity 75    
Minimum Humidity 48    
Precipitation  
Precipitation 0.00 in - - ()
Sea Level Pressure  
Sea Level Pressure 29.93 in    
Wind  
Wind Speed 9 mph (NNW)    
Max Wind Speed 14 mph    
Max Gust Speed -    
Visibility 9 miles    
Events      
Averages and records for this station are not official NWS values.
T = Trace of Precipitation, MM = Missing Value Source: NWS Daily Summary

Daily Weather History Graph

Daily Weather History Graph

Search for Another Location

Airport or City:

Trip Planner

Search our weather history database for the weather conditions in past years. The results will help you decide how hot, cold, wet, or windy it might be!

Date:

Astronomy

Feb. 02, 2014 Rise Set
Actual Time 7:16 AM HST 6:29 PM HST
Civil Twilight 6:53 AM HST 6:52 PM HST
Nautical Twilight 6:26 AM HST 7:19 PM HST
Astronomical Twilight 6:00 AM HST 7:45 PM HST
Moon 9:21 AM HST (2/2) 9:51 PM HST (2/2)
Length of Visible Light 11h 58m
Length of Day
11h 12m
Waxing Crescent, 13% of the Moon is Illuminated
Feb 2
Waxing Crescent
Feb 6
First Quarter
Feb 14
Full
Feb 22
Last Quarter
Feb 28
New

Hourly Weather History & Observations

Time (HST) Temp. Dew Point Humidity Pressure Visibility Wind Dir Wind Speed Gust Speed Precip Events Conditions
12:56 AM 72.0 °F 63.0 °F 73% 29.89 in 10.0 mi North 5.8 mph - N/A   Overcast
1:56 AM 72.0 °F 63.0 °F 73% 29.89 in 9.0 mi NW 6.9 mph - N/A   Unknown
2:56 AM 72.0 °F 62.1 °F 71% 29.89 in 9.0 mi NW 10.4 mph - N/A   Scattered Clouds
3:56 AM 71.1 °F 62.1 °F 73% 29.89 in 9.0 mi NW 8.1 mph - N/A   Partly Cloudy
4:56 AM 71.1 °F 61.0 °F 70% 29.89 in 9.0 mi NW 9.2 mph - N/A   Partly Cloudy
5:56 AM 71.1 °F 59.0 °F 66% 29.90 in 10.0 mi NW 9.2 mph - N/A   Scattered Clouds
6:56 AM 70.0 °F 59.0 °F 68% 29.91 in 9.0 mi NNW 10.4 mph - N/A   Unknown
7:56 AM 71.1 °F 59.0 °F 66% 29.92 in 6.0 mi NW 10.4 mph - N/A   Haze
8:56 AM 73.0 °F 57.9 °F 59% 29.93 in 8.0 mi NW 9.2 mph - N/A   Unknown
9:56 AM 75.0 °F 57.0 °F 53% 29.95 in 9.0 mi NW 10.4 mph - N/A   Unknown
10:56 AM 75.9 °F 55.0 °F 48% 29.95 in 10.0 mi NNW 9.2 mph - N/A   Unknown
11:56 AM 75.9 °F 59.0 °F 56% 29.94 in 9.0 mi NNW 11.5 mph - N/A   Clear
12:56 PM 75.9 °F 60.1 °F 58% 29.92 in 9.0 mi NNW 11.5 mph - N/A   Clear
1:56 PM 77.0 °F 62.1 °F 60% 29.90 in 9.0 mi NNW 13.8 mph - N/A   Partly Cloudy
2:56 PM 77.0 °F 59.0 °F 54% 29.89 in 10.0 mi NNW 11.5 mph - N/A   Clear
3:56 PM 75.9 °F 57.0 °F 52% 29.90 in 10.0 mi North 10.4 mph - N/A   Partly Cloudy
4:56 PM 75.0 °F 57.9 °F 55% 29.91 in 7.0 mi NNW 11.5 mph - N/A   Clear
5:56 PM 73.0 °F 57.0 °F 57% 29.94 in 7.0 mi NNW 12.7 mph - N/A   Clear
6:56 PM 72.0 °F 55.0 °F 55% 29.96 in 9.0 mi North 10.4 mph - N/A   Partly Cloudy
7:56 PM 71.1 °F 55.0 °F 57% 29.98 in 10.0 mi North 8.1 mph - N/A   Clear
8:56 PM 66.9 °F 57.0 °F 70% 29.99 in 10.0 mi North 4.6 mph - N/A   Partly Cloudy
9:56 PM 66.0 °F 57.0 °F 73% 30.00 in 10.0 mi NNE 3.5 mph - N/A   Mostly Cloudy
10:56 PM 64.0 °F 55.9 °F 75% 30.01 in 10.0 mi ENE 3.5 mph - N/A   Clear
11:56 PM 64.0 °F 55.9 °F 75% 30.00 in 10.0 mi ENE 4.6 mph - N/A   Clear